EHI
0 0 0 0 0 0 0 0 0 0 0 0 0 0 0 0 0 0 0 1 2 3 1 0 0 0 0 0 0 0 0 0 0 0 0 0 0 0 0 0 0 0 0
0 0 0 0 0 0 0 0 0 0 0 0 0 0 0 0 0 0 0 0 1 1 0 0 0 0 0 0 0 0 0 0 0 0 0 0 0 0 0 0 0 0 0
0 0 0 0 0 0 0 0 0 0 0 0 0 0 0 0 0 0 0 0 0 0 0 0 0 0 0 0 0 0 0 0 0 0 0 0 0 0 0 0 0 0 0
0 0 0 0 0 0 0 0 0 0 0 0 0 0 0 0 0 0 0 0 0 0 0 0 1 0 0 0 0 0 0 0 0 0 0 0 0 0 0 0 0 0 0
0 0 0 0 0 0 0 0 0 0 0 0 0 0 0 0 0 0 0 0 0 0 0 0 0 0 0 0 0 0 0 0 0 0 0 0 0 0 0 0 0 0 0
0 0 0 0 0 0 0 0 0 0 0 0 0 0 0 0 0 0 0 0 0 0 0 0 0 0 0 0 0 0 0 0 0 0 0 0 0 0 0 0 0 0 0
0 0 0 0 0 0 0 0 0 0 0 0 0 0 0 0 0 0 0 0 0 0 0 0 0 0 0 0 0 0 0 0 0 0 0 0 0 0 0 0 0 0 0
0 0 0 0 0 0 0 0 0 0 0 0 0 0 0 0 0 0 0 0 0 0 0 0 0 0 0 0 0 0 0 0 0 0 0 0 0 0 0 0 0 0 0
0 0 0 0 0 0 0 0 0 0 0 0 0 0 0 0 0 0 0 0 0 0 0 0 0 0 0 0 0 0 0 0 0 0 0 0 0 0 0 0 0 0 0
0 0 0 0 0 0 0 0 0 0 0 0 0 0 0 0 0 0 0 0 0 0 0 0 0 0 0 0 0 0 0 0 0 0 0 0 0 0 0 0 0 0 0
0 0 0 0 0 0 0 0 0 0 0 0 0 0 0 0 0 0 0 0 0 0 0 0 0 0 0 0 0 0 0 0 0 0 0 0 0 0 0 0 0 0 0
0 0 0 0 0 0 0 0 0 0 0 0 0 0 0 0 0 0 0 0 0 0 0 0 0 0 0 0 0 0 0 0 0 0 0 0 0 0 0 0 0 0 0
0 0 0 0 0 0 0 0 0 0 0 0 0 0 0 0 0 0 0 0 0 0 0 0 0 0 0 0 0 0 0 0 0 0 0 0 0 0 0 0 0 0 0
0 0 0 0 0 0 0 0 0 0 0 0 0 0 0 0 0 0 0 0 0 0 0 0 0 0 0 0 0 0 0 0 0 0 0 0 0 0 0 0 0 0 0
0 0 0 0 0 0 0 0 0 0 0 0 0 0 0 0 0 0 0 0 0 0 0 0 0 0 0 0 0 0 0 0 0 0 0 0 0 0 0 0 0 0 0
0 0 0 0 0 0 0 0 0 0 0 0 0 0 0 0 0 0 0 0 0 0 0 0 0 0 0 0 0 0 0 0 0 0 0 0 0 0 0 0 0 0 0
0 0 0 0 0 0 0 0 0 0 0 0 0 0 0 0 0 0 0 0 0 0 0 0 0 0 0 0 0 0 0 0 0 0 0 0 0 0 0 0 0 0 0
0 0 0 0 0 0 0 0 0 0 0 0 0 0 0 0 0 0 0 0 0 0 0 0 0 0 0 0 0 0 0 0 0 0 0 0 0 0 0 0 0 0 0
0 0 0 0 0 0 0 0 0 0 0 0 0 0 0 0 0 0 0 0 0 0 0 0 0 0 0 0 0 0 0 0 0 0 0 0 0 0 0 0 0 0 0
0 0 0 0 0 0 0 0 0 0 0 0 0 0 0 0 0 0 0 0 0 0 0 0 0 0 0 0 0 0 0 0 0 0 0 0 0 0 0 0 0 0 0
0 0 0 0 0 0 0 0 0 0 0 0 0 0 0 0 0 0 0 0 0 0 0 0 0 0 0 0 0 0 0 0 0 0 0 0 0 0 0 0 0 0 0
0 0 0 0 0 0 0 0 0 0 0 0 0 0 0 0 0 0 0 0 0 0 0 0 0 0 0 0 0 0 0 0 0 0 0 0 0 0 0 0 0 0 0
0 0 0 0 0 0 0 0 0 0 0 0 0 0 0 0 0 0 0 0 0 0 0 0 0 0 0 0 0 0 0 0 0 0 0 0 0 0 0 0 0 0 0
0 0 0 0 0 0 0 0 0 0 0 0 0 0 0 0 0 0 0 0 0 0 0 0 0 0 0 0 0 0 0 0 0 0 0 0 0 0 0 0 0 0 0
0 0 0 0 0 0 0 0 0 0 0 0 0 0 0 0 0 0 0 0 0 0 0 0 0 0 0 0 0 0 0 0 0 0 0 0 0 0 0 0 0 0 0
0 0 0 0 0 0 0 0 0 0 0 0 0 0 0 0 0 0 0 0 0 0 0 0 0 0 0 0 0 0 0 0 0 0 0 0 0 0 0 0 0 0 0
Wind_Speed
1 1 1 2 2 2 2 2 2 2 2 2 1 2 2 2 2 2 2 4 4 4 4 6 7 8 9 9 9 9 8 8 8 8 9 8 8 8 9 9 9 10 10
1 1 1 2 2 2 2 1 2 2 2 1 2 2 2 2 2 2 2 2 4 3 3 4 6 6 8 9 10 10 9 9 9 9 9 9 8 9 9 9 9 10 9
1 1 1 1 2 2 2 1 1 1 1 1 2 2 1 2 2 2 1 1 1 3 3 3 4 5 6 8 9 10 10 9 9 9 9 9 9 9 9 10 10 10 10
1 1 1 1 2 2 2 1 1 1 1 1 1 1 1 1 1 1 1 1 1 1 2 3 3 5 6 7 8 9 10 10 10 9 9 9 9 9 9 10 10 10 10
1 1 1 1 2 2 2 2 1 0 1 2 2 1 1 1 1 1 1 1 1 1 1 2 3 3 4 6 7 9 10 10 11 10 10 10 10 10 10 10 10 10 10
2 1 1 2 2 2 2 1 1 1 1 1 1 1 1 1 1 1 1 0 1 1 1 1 1 1 3 4 5 7 9 10 11 11 11 11 10 10 11 10 10 10 10
2 1 1 2 2 1 2 2 1 1 1 1 1 2 2 2 1 1 1 0 1 1 1 1 1 1 1 3 4 5 8 9 11 11 12 12 11 11 11 11 11 11 10
2 1 1 1 1 1 2 2 1 1 1 1 1 1 2 3 3 2 1 1 1 1 0 1 1 1 1 1 2 4 5 6 9 11 11 11 12 12 12 12 11 11 11
2 2 2 1 1 1 1 1 0 0 0 1 1 2 2 1 2 2 2 2 2 1 1 0 0 1 2 2 2 3 4 5 7 10 11 11 11 12 12 12 12 12 11
2 2 2 1 1 1 1 1 0 0 1 0 1 1 1 2 1 1 2 2 2 2 2 1 0 0 1 1 2 3 4 4 6 8 10 10 11 12 13 13 13 13 12
3 2 1 1 1 1 1 1 1 0 1 1 0 0 1 1 1 1 1 2 2 2 2 1 1 0 1 1 1 2 4 4 5 6 8 9 10 11 12 13 13 13 13
2 2 2 1 1 1 1 1 0 0 0 1 1 1 1 1 1 1 1 0 1 2 2 2 1 1 0 1 2 2 3 4 5 5 6 7 8 9 11 13 13 12 13
2 3 2 1 1 1 1 0 0 0 0 1 1 1 1 1 1 1 2 1 1 2 2 2 1 1 1 0 0 0 2 3 4 4 5 5 6 7 8 10 11 12 13
3 3 2 1 1 1 0 0 0 0 0 0 0 1 0 0 1 1 2 2 1 2 2 2 2 2 1 1 1 1 0 2 3 4 4 4 5 5 6 7 8 9 10
3 2 2 1 1 1 0 0 0 0 0 0 0 0 0 0 0 0 1 2 3 1 1 2 2 2 2 1 2 1 1 0 1 2 3 4 4 5 5 6 6 6 7
2 2 2 1 1 1 0 1 0 0 0 0 0 0 0 0 0 0 1 1 1 2 1 1 1 2 2 2 2 1 1 1 1 1 2 3 4 4 5 5 5 5 5
3 3 2 2 1 1 1 1 1 0 0 1 1 0 1 0 0 0 1 1 1 2 1 2 1 1 2 2 2 2 1 1 1 1 2 3 3 4 4 4 4 4 5
3 3 2 2 2 2 2 2 2 1 1 1 1 1 1 0 0 0 1 1 1 1 2 1 1 1 1 2 2 1 1 1 1 1 0 1 2 3 3 4 4 4 5
3 2 2 3 3 3 2 2 2 2 2 2 2 2 2 1 1 1 1 1 1 1 1 1 1 1 1 1 2 2 1 2 2 1 1 0 1 2 2 2 3 4 5
3 3 3 3 3 3 3 3 3 2 2 2 2 2 2 2 3 2 2 2 1 1 1 1 0 1 1 1 1 1 1 2 2 2 2 1 1 1 1 2 2 3 4
4 4 3 3 3 3 3 3 3 3 3 2 2 2 3 4 5 4 3 3 3 2 1 1 0 0 1 1 1 1 1 1 1 1 1 1 1 1 1 2 2 3 3
4 3 4 4 4 4 5 6 5 3 3 3 2 2 2 2 3 4 4 5 5 4 3 2 1 1 1 1 1 1 0 1 1 1 1 2 1 1 1 1 2 2 2
4 4 4 4 4 5 7 6 6 4 3 3 3 2 1 1 2 1 1 2 3 4 5 4 3 2 2 2 1 0 0 0 1 2 1 1 1 1 1 1 2 2 1
5 5 5 5 4 5 7 6 6 3 2 2 2 3 2 2 2 3 3 2 1 1 2 2 2 2 2 2 2 2 1 0 1 1 1 1 2 1 2 2 3 3 3
5 5 4 5 5 5 7 7 6 3 2 2 2 2 3 3 4 4 4 3 2 1 2 3 3 3 3 3 2 2 1 1 1 1 1 1 1 2 2 1 2 4 5
6 5 5 5 6 6 7 8 7 3 3 2 1 1 3 4 4 4 4 4 3 1 2 2 3 4 3 4 4 2 1 1 0 1 1 1 1 1 2 1 1 2 3
Wind_Direction
23 13 4 1 351 344 342 330 332 332 325 314 292 261 256 245 237 242 265 283 288 282 251 220 210 208 207 203 198 193 187 181 174 170 166 161 157 152 146 142 138 137 134
57 28 7 357 343 334 327 317 309 312 307 305 303 288 260 245 237 241 245 280 296 294 275 235 216 215 215 209 203 198 192 187 181 178 174 168 163 157 153 151 149 145 141
41 34 12 347 326 322 328 331 322 322 315 318 305 294 263 244 230 234 241 245 287 292 287 257 226 218 218 212 208 203 196 191 186 182 179 173 168 163 160 158 157 153 149
38 39 15 335 326 331 339 330 336 324 319 322 309 299 290 269 242 236 233 235 250 282 294 286 251 222 219 220 214 207 201 195 188 186 182 175 171 168 167 165 163 162 157
10 22 356 325 335 347 345 323 358 296 303 320 301 302 317 308 289 285 274 249 248 246 256 283 275 233 215 219 217 212 207 200 193 190 185 179 176 175 172 171 170 169 165
357 3 345 338 348 358 346 340 329 328 290 304 322 14 347 338 343 339 295 276 267 253 236 253 263 251 215 210 215 217 214 206 199 195 190 185 182 181 180 178 178 175 173
347 352 342 340 349 354 327 324 323 348 354 354 44 17 357 360 13 352 333 4 330 284 240 209 196 179 213 206 211 219 220 213 205 201 196 191 187 186 188 186 185 183 182
334 324 323 321 331 335 346 351 7 8 358 28 88 82 15 357 350 359 5 18 327 312 287 226 190 182 190 171 205 215 222 218 209 204 201 196 193 190 193 192 191 190 190
329 331 318 310 321 326 318 314 337 84 13 358 49 123 130 216 312 335 355 8 346 357 351 346 176 176 183 181 190 217 220 218 215 209 203 202 200 197 196 197 198 197 197
329 328 321 313 315 318 314 304 90 179 138 3 355 33 125 158 150 340 337 351 359 13 359 350 329 191 173 184 191 203 218 219 216 208 204 207 208 206 201 202 203 204 203
323 324 323 321 328 310 300 318 360 92 147 166 159 92 62 61 90 130 341 340 352 354 357 345 345 2 162 184 195 214 218 215 213 214 210 211 213 215 211 208 209 209 210
311 316 316 315 309 298 294 292 296 138 135 145 141 140 144 138 155 135 148 341 336 323 335 349 5 348 227 188 212 218 213 209 210 213 215 213 214 218 218 215 214 214 216
291 292 302 294 289 282 283 295 14 68 159 143 158 169 165 189 174 151 136 133 5 324 337 348 350 350 350 102 208 263 215 207 209 211 215 213 212 217 222 222 223 223 224
258 275 281 277 282 293 305 64 306 285 134 148 175 160 151 243 178 163 157 143 71 356 359 336 331 344 347 357 6 28 250 215 208 206 209 210 211 216 221 224 226 226 226
257 268 272 278 282 284 286 108 68 323 110 132 174 155 188 289 205 176 156 152 147 133 324 318 323 331 343 11 6 8 1 317 193 203 203 206 213 219 221 224 225 222 224
255 265 270 266 271 274 260 129 272 300 84 291 191 122 255 280 295 130 142 145 155 160 203 275 286 314 332 1 12 16 349 354 349 230 202 197 208 217 221 225 223 220 226
241 240 241 237 242 249 231 178 216 178 147 315 325 189 271 241 144 91 136 140 152 155 190 281 295 320 351 360 354 360 358 354 325 294 227 211 206 210 213 222 224 218 221
240 233 229 224 234 235 220 208 231 218 206 236 259 242 270 230 169 128 142 157 173 178 175 226 318 341 342 331 337 348 353 357 331 344 267 206 199 200 209 222 225 223 225
234 232 216 222 230 228 219 222 221 223 222 227 225 219 238 204 216 204 187 192 193 162 165 176 271 319 327 336 356 352 355 346 333 342 352 74 183 197 215 230 233 231 231
221 224 218 220 222 220 217 220 214 214 223 229 225 218 222 210 213 203 198 202 177 142 132 148 201 322 319 320 9 355 349 351 338 345 351 6 8 334 295 273 259 249 243
221 219 217 223 225 222 222 215 212 212 215 227 232 229 231 225 220 206 193 188 169 159 145 141 181 315 316 334 312 303 313 322 327 348 331 343 356 334 302 302 292 269 250
220 213 217 220 228 237 239 223 205 205 208 209 224 239 248 250 233 215 205 189 176 170 174 169 185 205 252 249 254 273 286 11 329 344 348 315 330 288 286 278 306 296 271
212 214 221 218 229 242 241 228 210 191 198 208 213 222 242 221 203 180 180 174 185 191 182 171 180 211 218 222 201 212 178 176 249 311 353 307 316 294 300 329 346 351 337
206 215 221 219 225 237 229 214 196 182 187 204 208 206 208 227 196 167 148 127 123 149 177 167 173 201 205 202 199 192 184 190 291 337 31 321 328 315 327 337 5 21 19
212 212 211 210 215 232 219 200 180 161 178 209 217 208 203 209 200 165 144 141 123 74 87 103 112 105 86 87 111 113 103 99 342 343 14 12 328 315 308 319 5 29 31
216 210 212 210 210 220 215 201 183 163 176 197 210 225 213 196 191 173 161 158 162 180 123 88 66 56 54 49 65 99 148 147 155 316 346 10 338 350 324 309 342 8 10